Location: Fontevrault
(47.1823°N, 0.0493°E)
Time: 11:15:54
(UTC+00:00)

Cosmos 405 - Pass Details

Date: 16 June 2021
Orbit: 446 x 459 km, 81.3° (Epoch: 27 July)

Event Time Altitude Azimuth Distance (km) Brightness Sun altitude
Rises 22:28:30 0° 342° (NNW) 2,464 8.5 -16.4°
Reaches altitude 10° 22:30:38 10° 336° (NNW) 1,585 7.0 -16.6°
Maximum altitude 22:33:55 42° 264° (W) 654 3.8 -16.8°
Enters shadow 22:35:14 28° 213° (SSW) 873 4.0 -16.9°
